This demonstration page uses our WeatherBlox Daily Observations layout. Learn more.

Left ArrowRight Arrow

39.51506, -84.39828

Hourly Observations for May 25, 2015

Temp ( °F °C ) Dew Point ( °F °C ) Humidity (%) Winds ( mph kmh ) Pressure ( in mb ) Visibility ( mi km ) Precip ( " mm )
12:15 am 00:15 Clear 63 17.1 53 11.7 71 71 Calm 30.12 1020 10 16 0.00 0.00
12:35 am 00:35 Clear 62 16.6 53 11.8 73 73 Calm 30.12 1020 10 16 0.00 0.00
12:55 am 00:55 Clear 62 16.6 54 12 74 74 W 3 6 30.09 1019 10 16 0.00 0.00
1:15 am 01:15 Clear 62 16.9 53 11.9 73 73 Calm 30.09 1019 10 16 0.00 0.00
1:35 am 01:35 Partly Cloudy 66 18.8 53 11.9 64 64 SSW 3 6 30.09 1019 10 16 0.00 0.00
1:55 am 01:55 Partly Cloudy 69 20.8 53 11.7 56 56 S 6 9 30.09 1019 10 16 0.00 0.00
2:15 am 02:15 Clear 69 20.8 51 10.7 53 53 SSW 7 11 30.09 1019 10 16 0.00 0.00
2:35 am 02:35 Clear 69 20.8 52 10.9 53 53 SSW 3 6 30.06 1018 10 16 0.00 0.00
2:55 am 02:55 Clear 69 20.8 52 11.1 54 54 SSW 3 6 30.06 1018 10 16 0.00 0.00
3:15 am 03:15 Clear 69 20.8 52 11.3 55 55 S 6 9 30.06 1018 10 16 0.00 0.00
3:35 am 03:35 Clear 70 20.9 52 11 53 53 SSW 6 9 30.06 1018 10 16 0.00 0.00
3:55 am 03:55 Partly Cloudy 69 20.8 54 12 57 57 SSW 5 7 30.06 1018 10 16 0.00 0.00
4:15 am 04:15 Partly Cloudy 69 20.8 54 12.2 58 58 S 5 7 30.06 1018 10 16 0.00 0.00
4:35 am 04:35 Partly Cloudy 71 21.4 53 11.9 55 55 S 5 7 30.06 1018 10 16 0.00 0.00
4:55 am 04:55 Clear 74 23.4 56 13.3 53 53 SSW 8 13 30.06 1018 10 16 0.00 0.00
5:15 am 05:15 Clear 74 23.6 56 13.2 52 52 SSW 8 13 30.06 1018 10 16 0.00 0.00
5:35 am 05:35 Partly Cloudy 74 23.6 56 13.3 53 53 S 7 11 30.06 1018 10 16 0.00 0.00
5:55 am 05:55 Clear 74 23.1 56 13.2 54 54 S 8 13 30.06 1018 10 16 0.00 0.00
6:15 am 06:15 Clear 74 23.6 56 13.6 54 54 SSW 9 15 30.06 1018 10 16 0.00 0.00
6:35 am 06:35 Partly Cloudy 71 21.6 55 12.9 58 58 SSW 8 13 30.09 1019 10 16 0.00 0.00
6:55 am 06:55 Partly Cloudy 72 22.3 56 13.3 57 57 SSW 9 15 30.09 1019 10 16 0.00 0.00
7:15 am 07:15 Mostly Cloudy 72 22.2 56 13.6 58 58 SSW 9 15 30.09 1019 10 16 0.00 0.00
7:35 am 07:35 Mostly Cloudy 71 21.6 57 13.8 61 61 S 8 13 30.09 1019 10 16 0.00 0.00
7:55 am 07:55 Sunny 71 21.6 57 13.9 62 62 S 7 11 30.09 1019 10 16 0.00 0.00
8:15 am 08:15 Sunny 72 22.3 58 14.2 60 60 S 6 9 30.09 1019 10 16 0.00 0.00
8:35 am 08:35 Sunny 74 23.6 59 15.1 59 59 SSW 12 19 30.09 1019 10 16 0.00 0.00
8:55 am 08:55 Partly Cloudy 74 23.6 59 15 59 59 SSW 15 24 30.09 1019 10 16 0.00 0.00
9:15 am 09:15 Mostly Cloudy 74 23.6 58 14.6 57 57 SW 23 37 30.12 1020 10 16 0.00 0.00
9:35 am 09:35 Cloudy with Light Rain 74 23.6 62 16.5 65 65 SW 25 41 30.12 1020 10 16 0.00 0.00
9:55 am 09:55 Cloudy with Light Rain 69 20.8 63 17 79 79 SW 22 35 30.12 1020 10 16 0.00 0.00
10:15 am 10:15 Cloudy with Rain 69 20.8 65 18.1 85 85 SW 16 26 30.12 1020 4 6 0.00 0.00
10:35 am 10:35 Cloudy with Light Rain 69 20.8 65 18.2 85 85 SSW 12 19 30.12 1020 7 11 0.00 0.00
10:55 am 10:55 Cloudy with Light Rain 69 20.8 65 18.2 85 85 SSW 10 17 30.12 1020 7 11 0.00 0.00
11:15 am 11:15 Cloudy 69 20.8 64 17.9 84 84 SSW 13 20 30.12 1020 10 16 0.00 0.00
11:35 am 11:35 Partly Cloudy with Light Rain 69 20.8 64 17.6 82 82 SSW 12 19 30.12 1020 10 16 0.00 0.00
11:55 am 11:55 Partly Cloudy 72 22 65 18.4 80 80 SSW 14 22 30.12 1020 10 16 0.00 0.00
12:15 pm 12:15 Sunny 74 23.3 65 18.6 75 75 SSW 15 24 30.12 1020 10 16 0.00 0.00
12:35 pm 12:35 Mostly Cloudy 74 23.6 65 18.1 71 71 SW 16 26 30.12 1020 10 16 0.00 0.00
12:55 pm 12:55 Mostly Cloudy 74 23.6 65 18.1 71 71 SW 17 28 30.12 1020 10 16 0.00 0.00
1:15 pm 13:15 Mostly Cloudy 74 23.6 65 18.5 73 73 SW 14 22 30.12 1020 10 16 0.00 0.00
1:35 pm 13:35 Cloudy with Light Rain 74 23.6 65 18.6 74 74 SW 16 26 30.12 1020 10 16 0.00 0.00
1:55 pm 13:55 Cloudy with Light Rain 74 23.6 66 19.1 76 76 SW 13 20 30.12 1020 10 16 0.00 0.00
2:15 pm 14:15 Cloudy with Drizzle 74 23.6 66 19 75 75 SW 16 26 30.12 1020 10 16 0.00 0.00
2:35 pm 14:35 Cloudy with Light Rain 72 22.3 64 18 77 77 SW 14 22 30.12 1020 10 16 0.00 0.00
2:55 pm 14:55 Mostly Cloudy 74 23.6 65 18.3 72 72 SW 17 28 30.12 1020 10 16 0.00 0.00
3:15 pm 15:15 Partly Cloudy 74 23.6 64 17.8 70 70 SW 15 24 30.12 1020 10 16 0.00 0.00
3:35 pm 15:35 Partly Cloudy 74 23.6 64 17.8 70 70 SW 18 30 30.12 1020 10 16 0.00 0.00
3:55 pm 15:55 Mostly Cloudy 74 23.6 64 17.8 70 70 SW 10 17 30.12 1020 10 16 0.00 0.00
4:15 pm 16:15 Mostly Cloudy 75 23.9 64 17.6 68 68 SW 13 20 30.09 1019 10 16 0.00 0.00
4:35 pm 16:35 Partly Cloudy 77 25.1 65 18.1 65 65 SW 15 24 30.09 1019 10 16 0.00 0.00
4:55 pm 16:55 Partly Cloudy 80 26.5 65 18.5 62 62 SW 17 28 30.09 1019 10 16 0.00 0.00
5:15 pm 17:15 Partly Cloudy 79 25.9 63 17.2 59 59 SSW 24 39 30.06 1018 10 16 0.00 0.00
5:35 pm 17:35 Partly Cloudy 77 25.2 62 16.6 59 59 SW 23 37 30.06 1018 10 16 0.00 0.00
5:55 pm 17:55 Partly Cloudy 80 26.5 63 17.4 57 57 SW 20 31 30.06 1018 10 16 0.00 0.00
6:15 pm 18:15 Partly Cloudy 80 26.5 64 17.6 58 58 SW 14 22 30.06 1018 10 16 0.00 0.00
6:35 pm 18:35 Partly Cloudy 77 25.1 63 17 61 61 SSW 16 26 30.06 1018 10 16 0.00 0.00
6:55 pm 18:55 Partly Cloudy 77 25.1 64 17.5 63 63 SW 14 22 30.06 1018 10 16 0.00 0.00
7:15 pm 19:15 Mostly Cloudy 77 25.1 64 17.7 64 64 SSW 13 20 30.06 1018 10 16 0.00 0.00
7:35 pm 19:35 Partly Cloudy 75 23.9 63 17 65 65 SW 12 19 30.09 1019 10 16 0.00 0.00
7:55 pm 19:55 Mostly Cloudy 74 23.6 62 16.8 66 66 SW 10 17 30.09 1019 10 16 0.00 0.00
8:15 pm 20:15 Mostly Cloudy 74 23.6 62 16.8 66 66 SSW 14 22 30.09 1019 10 16 0.00 0.00
8:35 pm 20:35 Partly Cloudy 74 23.6 64 17.5 69 69 SW 9 15 30.06 1018 10 16 0.00 0.00
8:55 pm 20:55 Partly Cloudy 74 23.6 64 17.7 70 70 SSW 9 15 30.06 1018 10 16 0.00 0.00
9:15 pm 21:15 Mostly Cloudy 74 23.6 64 18 71 71 SSW 7 11 30.06 1018 10 16 0.00 0.00
9:35 pm 21:35 Partly Cloudy 74 23.6 65 18.2 72 72 SSW 6 9 30.06 1018 10 16 0.00 0.00
9:55 pm 21:55 Partly Cloudy 74 23.6 65 18.2 72 72 SSW 7 11 30.06 1018 10 16 0.00 0.00
10:15 pm 22:15 Clear 74 23.6 65 18.5 73 73 SSW 6 9 30.06 1018 10 16 0.00 0.00
10:35 pm 22:35 Clear 72 22.3 64 17.6 75 75 SW 5 7 30.09 1019 10 16 0.00 0.00
10:55 pm 22:55 Partly Cloudy 69 20.8 62 16.9 78 78 Calm 30.09 1019 10 16 0.00 0.00
11:15 pm 23:15 Mostly Cloudy 69 20.8 64 18 84 84 Calm 30.09 1019 10 16 0.00 0.00
11:35 pm 23:35 Mostly Cloudy 69 20.8 64 17.7 83 83 Calm 30.09 1019 10 16 0.00 0.00
11:55 pm 23:55 Partly Cloudy 69 20.8 64 18 84 84 WSW 3 6 30.09 1019 10 16 0.00 0.00

Powered by AerisWeather